Regional Weather Roundup
Issued by NWS

Home | Current Version | Previous Version | Text Only | Print | Product List | Glossary Off
Versions: 1 2 3 4 5 6 7 8 9 10 11 12 13 14 15 16 17 18 19 20 21 22 23 24 25 26 27 28 29 30 31 32 33 34 35 36 37 38 39 40 41 42 43 44 45 46 47 48 49 50

555
ASUS43 KLOT 191311
RWRIL

ILLINOIS REGIONAL WEATHER ROUNDUP
NATIONAL WEATHER SERVICE CHICAGO/ROMEOVILLE IL
700 AM CST THU JAN 19 2017

NOTE: "FAIR" INDICATES FEW OR NO CLOUDS BELOW 12,000 FEET WITH NO
SIGNIFICANT WEATHER AND/OR OBSTRUCTIONS TO VISIBILITY.

* THESE STATIONS ARE NOT UNDER NWS QUALITY CONTROL. THEY ALSO MAY NOT
  REPORT WEATHER SUCH AS PRECIPITATION OR FOG.

ILZ001-002-007-009-015-016-024-191400-
NORTHWEST ILLINOIS

CITY           SKY/WX    TMP DP  RH WIND       PRES   REMARKS
MOLINE         CLEAR     28  26  92 E6        29.93F FOG     WCI  22
STERLING*      CLEAR     30  30 100 E6        29.97F FOG     WCI  24
SAVANNA*       FOG       29  28  99 CALM      29.96F VSB 1
$$

ILZ003-004-008-010-011-017-018-191400-
NORTH CENTRAL ILLINOIS

CITY           SKY/WX    TMP DP  RH WIND       PRES   REMARKS
ROCKFORD       PTCLDY    30  29  96 S5        29.98F FOG     WCI  25
FREEPORT*      CLEAR     31  30  96 CALM      29.97F FOG
ROCHELLE*      PTCLDY    32  32 100 SE8       29.98F FOG     WCI  25
DE KALB*       SNOW      32  32 100 SE6       29.98F VSB 1/4 WCI  26
$$

ILZ005-006-012>014-019>023-191400-
NORTHEAST ILLINOIS

CITY           SKY/WX    TMP DP  RH WIND       PRES   REMARKS
CHICAGO-OHARE  CLOUDY    33  33 100 S5        29.99F FOG     WCI  29
CHICAGO-MIDWAY CLOUDY    33  32  96 S5        30.01F FOG     WCI  29
AURORA         CLOUDY    33  31  92 SE5       29.99F FOG     WCI  29
LANSING*       PTCLDY    34  34 100 S6        30.02F FOG     WCI  29
JOLIET*        CLOUDY    35  35  99 S3        30.02F FOG
WAUKEGAN       FOG       33  33 100 S8        29.99S VSB 1/4 WCI  26
DUPAGE AIRPORT FOG       33  31  92 S7        29.98F VSB 1/4 WCI  27
KANKAKEE*      CLOUDY    34  33  96 SE5       30.03F FOG     WCI  30
WHEELING       CLOUDY    34  33  96 S8        30.01F FOG     WCI  27
MORRIS*        CLOUDY    33  32  96 SE3       30.00F FOG
ROMEOVILLE*    CLOUDY    33  33 100 S6        30.01F FOG     WCI  27
NORTHERLY ISL    N/A     35  33  92 S8          N/A  WCI  29
$$

LMZ740>746-191400-
SOUTHERN LAKE MICHIGAN

STATION/POSITION SKY/WX   TEMP    WIND        PRES    VSBY  WAVE
                          AIR SEA DIR/SP/G                  HT/PER
                          (F)     (DEG/KT/KT) (MB)    (MI)  (FT/S)
HARRISON CRIB              36     190/ 12/ 13   N/A
BURNHAM HARBOR             35     180/  7/ 10   N/A
CALUMET HARBOR             35     160/  5/  9 1015.8F
BURNS HARBOR               35     180/  7/ 14 1017.6S
$$

ILZ025>027-034>036-040-047-049-050-058-095>099-191400-
WEST-CENTRAL ILLINOIS

CITY           SKY/WX    TMP DP  RH WIND       PRES   REMARKS
QUINCY         LGT RAIN  39  38  96 CALM      29.88F FOG
GALESBURG*     CLOUDY    33  33 100 SE6       29.94S FOG     WCI  28
MACOMB*        CLOUDY    34  34 100 E6        29.95F FOG     WCI  29
JACKSONVILLE*  CLOUDY    38  37  94 SE9       29.93F FOG     WCI  32
PITTSFIELD*    CLOUDY    40  39  95 E8        29.91F
$$

ILZ028>032-037-038-041>044-048-051>054-059>061-191400-
CENTRAL ILLINOIS

CITY           SKY/WX    TMP DP  RH WIND       PRES   REMARKS
PONTIAC        MOCLDY    34  34 100 SE7       30.00F FOG     WCI  28
BLOOMINGTON    CLOUDY    34  33  96 SE10      29.97F FOG     WCI  26
DECATUR        CLOUDY    37  37 100 E6        29.98F FOG     WCI  32
PEORIA         CLOUDY    34  34 100 E3        29.97F FOG
LACON*         PTCLDY    33  33 100 SE5       29.96F FOG     WCI  28
LINCOLN*       CLOUDY    37  37 100 SE8       29.96F FOG     WCI  31
SPRINGFIELD    CLOUDY    40  37  89 E7        29.96F
TAYLORVILLE    CLOUDY    38  37  95 E6        29.96F FOG     WCI  33
$$

ILZ033-039-045-046-055>057-062-063-191400-
EAST-CENTRAL ILLINOIS

CITY           SKY/WX    TMP DP  RH WIND       PRES   REMARKS
CHAMPAIGN      CLOUDY    36  34  92 E8        30.00F FOG     WCI  30
RANTOUL*       CLOUDY    36  36  99 E7        30.00F FOG     WCI  31
MATTOON        CLOUDY    38  36  92 SE6       29.99S FOG     WCI  33
PARIS*         CLOUDY    36  36  98 E7        30.02F FOG     WCI  31
$$

ILZ079-100>102-191400-
SOUTHWEST ILLINOIS

CITY           SKY/WX    TMP DP  RH WIND       PRES   REMARKS
ALTON          CLOUDY    41  39  93 E6        29.94S
BELLEVILLE     CLOUDY    42  42  99 E5        29.93F
CAHOKIA*       LGT RAIN  43  39  86 E7        29.93F
SPARTA*        CLOUDY    42  39  91 SE8       29.96S
$$

ILZ064>066-069>071-074>076-080>082-084>086-088>090-092>094-191400-
SOUTH-CENTRAL ILLINOIS

CITY           SKY/WX    TMP DP  RH WIND       PRES   REMARKS
CARBONDALE     CLOUDY    44  42  93 E6        29.94F
CAIRO*         CLOUDY    45  45 100 E8        29.92F FOG
EFFINGHAM*     CLOUDY    39  39  99 NE5       29.98F FOG
MARION         CLOUDY    45  45 100 SE9       29.95F
MT. VERNON     CLOUDY    42  39  89 E7        29.97F
CENTRALIA*     CLOUDY    43  40  91 E7        29.94F
SALEM*         CLOUDY    42  38  86 E7        29.96S
METROPOLIS*    CLOUDY    45  44  96 CALM      29.96F FOG
$$

ILZ067-068-072-073-078-083-087-091-191400-
SOUTHEAST ILLINOIS

CITY           SKY/WX    TMP DP  RH WIND       PRES   REMARKS
LAWRENCEVILLE  CLOUDY    40  38  93 E6        30.02F
FLORA*         CLOUDY    42  39  91 E6        29.99S
FAIRFIELD*     CLOUDY    42  39  89 E3        29.98F
HARRISBURG*    CLOUDY    43  41  90 E9        29.98F
ROBINSON*      CLOUDY    37  36  94 E7        30.03F WCI  32
CARMI*         CLOUDY    42  40  91 E5        29.99S
$$

ABBREVIATIONS USED IN REMARKS
   TC - TEMPERATURE IN CELSIUS
  WCI - WIND CHILL INDEX
   HX - HEAT INDEX
  VSB - VISIBILITY
$$





USA.gov is the U.S. government's official web portal to all federal, state and local government web resources and services.